2018-094G (43716 NORAD) Tracking and Keplerian Element Data

This shows tracking and keplerian element data for the satellite.

Feedback or suggestion? Click here.




ElementValue
Catalog43716
Name2018-094G
Epoch Orbit433
Epoch Day352.80794419
Epoch Year2018
RAAN357.8637
Inclination97.5246
Eccentricity0.0037372
Argument of Perigee176.9033
Mean Anonmoly183.2444
Mean Motion15.26485074
Decay Rate1.536E-05
L11 43716U 18094G 18352.80794419 .00001536 00000-0 60671-4 0 9993
L22 43716 97.5246 357.8637 0037372 176.9033 183.2444 15.26485074 4334

Live tracking and technical data element details for 2018-094G (NORAD 43716). 2018-094G can be tracked NOW for your location showing map with azimuth and elevation plus other details from your city location.

Track the satellite on the map from your city or location and see movement details for azimuth, elevation, latitude, longitude, range, height, and movement on the map or in text.







IsCatalogInMostPopularTable: catalog: 43716, numindb: 32
Update: records affected: 1



GetName: 43716 2018-094G

Hit Count: updated at: Wed, 23 Jan 2019 02:56:13 GMT